GW5755 Weather Reports


time (UTC)temp
F
wind
direction
speed
knots
gust
knots
rain 1hr
in
rain 24hr
in
rain mn
in
humidity
%
barometer
mb
20260508163001 79 297 5.2 8.7 0.00 0.00 0.00 56 1009.4
20260508162458 79 306 5.2 11.3 0.00 0.00 0.00 55 1009.4
20260508161955 79 282 7.8 9.6 0.00 0.00 0.00 56 1009.0
20260508161452 79 316 8.7 13.0 0.00 0.00 0.00 54 1009.1
20260508160949 79 319 13.0 14.8 0.00 0.00 0.00 53 1009.4
20260508160448 80 323 7.8 11.3 0.00 0.00 0.00 54 1008.8
20260508155944 80 311 12.2 13.9 0.00 0.00 0.00 54 1009.3
20260508155441 80 285 7.8 9.6 0.00 0.00 0.00 52 1009.2
20260508154938 81 311 9.6 14.8 0.00 0.00 0.00 51 1009.1
20260508154436 81 307 8.7 12.2 0.00 0.00 0.00 50 1009.2
20260508153932 83 284 7.8 11.3 0.00 0.00 0.00 47 1008.8
20260508153429 83 310 9.6 12.2 0.00 0.00 0.00 43 1009.0
20260508152925 83 299 12.2 13.9 0.00 0.00 0.00 42 1009.1
20260508152422 84 316 16.5 19.1 0.00 0.00 0.00 41 1009.0
20260508151918 84 312 13.0 18.2 0.00 0.00 0.00 40 1009.0
20260508151415 84 315 14.8 16.5 0.00 0.00 0.00 39 1009.2
20260508150911 84 317 16.5 18.2 0.00 0.00 0.00 40 1009.0
20260508150409 84 299 8.7 13.9 0.00 0.00 0.00 44 1009.2
20260508145905 86 296 9.6 12.2 0.00 0.00 0.00 43 1008.8
20260508145401 89 319 7.8 14.8 0.00 0.00 0.00 28 1009.1
20260508144858 89 349 11.3 13.0 0.00 0.00 0.00 29 1009.0
20260508144356 90 312 12.2 16.5 0.00 0.00 0.00 29 1008.9
20260508143853 90 8 14.8 15.6 0.00 0.00 0.00 27 1009.0
20260508143350 90 16 14.8 19.1 0.00 0.00 0.00 27 1009.0
20260508142846 91 350 17.4 20.0 0.00 0.00 0.00 26 1009.0
20260508142343 91 358 20.0 21.7 0.00 0.00 0.00 26 1008.8
20260508141840 91 347 16.5 20.9 0.00 0.00 0.00 26 1008.9
20260508141337 91 352 13.0 18.2 0.00 0.00 0.00 25 1009.0
20260508140834 91 338 17.4 19.1 0.00 0.00 0.00 24 1009.0
20260508140331 92 350 17.4 20.0 0.00 0.00 0.00 25 1009.0
20260508135826 92 336 16.5 19.1 0.00 0.00 0.00 24 1008.9
20260508135323 92 348 18.2 20.9 0.00 0.00 0.00 24 1009.0
20260508134819 92 349 17.4 19.1 0.00 0.00 0.00 24 1009.1
20260508134316 92 1 14.8 19.1 0.00 0.00 0.00 24 1009.1
20260508133813 92 347 16.5 20.0 0.00 0.00 0.00 24 1009.0
20260508133311 92 358 18.2 20.9 0.00 0.00 0.00 24 1009.0
20260508132808 92 358 18.2 20.9 0.00 0.00 0.00 24 1009.3
20260508132306 92 358 18.2 20.9 0.00 0.00 0.00 24 1009.2
20260508131801 92 351 18.2 20.0 0.00 0.00 0.00 24 1009.2
20260508131257 92 351 18.2 20.0 0.00 0.00 0.00 24 1009.5
20260508130754 92 354 13.9 18.2 0.00 0.00 0.00 24 1009.3
20260508130251 92 340 19.1 20.9 0.00 0.00 0.00 24 1009.2
20260508125747 92 356 15.6 20.0 0.00 0.00 0.00 25 1009.5
20260508125243 91 0 14.8 20.0 0.00 0.00 0.00 25 1009.3
20260508124742 91 337 15.6 20.0 0.00 0.00 0.00 25 1009.7
20260508124238 91 328 13.0 19.1 0.00 0.00 0.00 27 1009.6
20260508123737 90 353 19.1 20.9 0.00 0.00 0.00 27 1009.6
20260508123235 90 347 18.2 23.5 0.00 0.00 0.00 26 1009.9
20260508122730 91 346 20.0 21.7 0.00 0.00 0.00 26 1009.7
20260508122227 91 346 20.9 22.6 0.00 0.00 0.00 26 1009.9
20260508121725 90 353 24.3 26.9 0.00 0.00 0.00 26 1009.9
20260508121224 90 6 20.0 26.1 0.00 0.00 0.00 26 1009.7
20260508120720 90 345 22.6 25.2 0.00 0.00 0.00 26 1009.9
20260508120219 90 350 22.6 23.5 0.00 0.00 0.00 26 1010.3
20260508115716 91 351 19.1 25.2 0.00 0.00 0.00 26 1010.4
20260508115213 90 335 20.0 21.7 0.00 0.00 0.00 26 1010.3
20260508114709 90 335 20.0 22.6 0.00 0.00 0.00 27 1010.3
20260508114206 90 1 18.2 26.1 0.00 0.00 0.00 27 1010.2
20260508113703 90 344 20.0 23.5 0.00 0.00 0.00 27 1010.3
20260508113201 90 340 17.4 23.5 0.00 0.00 0.00 27 1010.1
20260508112657 90 347 19.1 22.6 0.00 0.00 0.00 27 1010.3
20260508112154 89 27 20.0 23.5 0.00 0.00 0.00 26 1010.4
20260508111650 89 344 20.9 23.5 0.00 0.00 0.00 27 1010.5
20260508111148 89 9 20.9 25.2 0.00 0.00 0.00 29 1010.3
20260508110646 89 357 19.1 25.2 0.00 0.00 0.00 27 1010.6
20260508110143 89 336 21.7 26.9 0.00 0.00 0.00 27 1010.6
20260508105638 89 346 21.7 26.9 0.00 0.00 0.00 28 1010.6
20260508105135 89 344 20.0 23.5 0.00 0.00 0.00 28 1010.5
20260508104632 88 348 21.7 23.5 0.00 0.00 0.00 28 1010.6
20260508104129 89 351 21.7 23.5 0.00 0.00 0.00 28 1010.8
20260508103626 88 347 20.9 22.6 0.00 0.00 0.00 27 1010.6
20260508103123 88 352 19.1 25.2 0.00 0.00 0.00 28 1010.6
20260508102620 88 346 20.9 23.5 0.00 0.00 0.00 29 1010.8
20260508102118 89 344 20.0 26.1 0.00 0.00 0.00 29 1011.1
20260508101615 88 350 21.7 26.9 0.00 0.00 0.00 28 1010.9
20260508101112 88 347 22.6 26.9 0.00 0.00 0.00 30 1010.9
20260508100610 87 340 22.6 27.8 0.00 0.00 0.00 30 1010.8
20260508100107 87 350 23.5 28.7 0.00 0.00 0.00 30 1010.9
20260508095604 86 350 22.6 28.7 0.00 0.00 0.00 31 1011.1
20260508095100 86 344 26.1 28.7 0.00 0.00 0.00 30 1010.9
20260508094558 86 351 25.2 27.8 0.00 0.00 0.00 31 1011.3
20260508094054 86 348 23.5 28.7 0.00 0.00 0.00 32 1011.3
20260508093552 86 8 21.7 26.9 0.00 0.00 0.00 32 1011.4
20260508093050 86 338 25.2 27.8 0.00 0.00 0.00 31 1011.3
20260508092546 86 349 25.2 29.5 0.00 0.00 0.00 32 1011.2
20260508092045 86 347 24.3 26.9 0.00 0.00 0.00 31 1011.5
20260508091542 85 11 24.3 26.9 0.00 0.00 0.00 33 1011.4
20260508091039 84 358 18.2 26.9 0.00 0.00 0.00 33 1011.4
20260508090537 84 342 28.7 31.3 0.00 0.00 0.00 33 1011.3
20260508090033 84 344 27.8 30.4 0.00 0.00 0.00 33 1011.2
20260508085530 84 336 25.2 34.8 0.00 0.00 0.00 34 1011.1
20260508085027 83 352 26.1 31.3 0.00 0.00 0.00 35 1011.3
20260508084524 83 346 21.7 30.4 0.00 0.00 0.00 36 1011.3
20260508084021 82 353 26.9 31.3 0.00 0.00 0.00 36 1011.3
20260508083518 82 348 28.7 34.8 0.00 0.00 0.00 37 1011.4
20260508083014 82 343 29.5 31.3 0.00 0.00 0.00 37 1011.3
20260508082510 82 334 24.3 30.4 0.00 0.00 0.00 38 1011.4
20260508082008 81 342 26.1 33.9 0.00 0.00 0.00 39 1011.3
20260508081505 81 351 26.9 33.0 0.00 0.00 0.00 37 1011.5
20260508081001 81 358 28.7 31.3 0.00 0.00 0.00 39 1011.4
20260508080459 81 355 29.5 34.8 0.00 0.00 0.00 37 1011.5
20260508075956 81 349 28.7 33.9 0.00 0.00 0.00 36 1011.6
20260508075453 82 346 27.8 33.0 0.00 0.00 0.00 34 1011.4
20260508074951 82 343 26.1 29.5 0.00 0.00 0.00 36 1011.5
20260508074449 82 340 27.8 30.4 0.00 0.00 0.00 35 1011.4
20260508073945 82 348 25.2 30.4 0.00 0.00 0.00 35 1011.6
20260508073442 81 341 31.3 34.8 0.00 0.00 0.00 35 1011.6
20260508072939 81 345 26.1 28.7 0.00 0.00 0.00 36 1011.5
20260508072435 80 355 25.2 29.5 0.00 0.00 0.00 38 1011.4
20260508071933 79 348 21.7 29.5 0.00 0.00 0.00 42 1011.5
20260508071431 79 352 26.1 30.4 0.00 0.00 0.00 42 1011.5
20260508070928 79 323 19.1 26.1 0.00 0.00 0.00 44 1011.8
20260508070426 79 351 15.6 26.9 0.00 0.00 0.00 45 1011.8
20260508065923 78 334 23.5 26.9 0.00 0.00 0.00 46 1011.8
20260508065421 78 351 23.5 27.8 0.00 0.00 0.00 46 1011.4
20260508064919 78 26 27.8 33.0 0.00 0.00 0.00 45 1011.4
20260508064416 78 359 25.2 28.7 0.00 0.00 0.00 45 1011.6
20260508063914 78 345 26.9 29.5 0.00 0.00 0.00 44 1011.5
20260508063412 78 349 25.2 29.5 0.00 0.00 0.00 45 1011.4
20260508062909 78 353 23.5 27.8 0.00 0.00 0.00 46 1011.5
20260508062406 77 357 26.9 30.4 0.00 0.00 0.00 45 1011.4
20260508061903 77 338 28.7 30.4 0.00 0.00 0.00 47 1011.4
20260508061401 77 343 26.1 29.5 0.00 0.00 0.00 47 1011.5
20260508060857 76 342 20.0 23.5 0.00 0.00 0.00 50 1011.5
20260508060355 77 339 26.1 27.8 0.00 0.00 0.00 49 1011.4
20260508055855 76 331 24.3 27.8 0.00 0.00 0.00 51 1011.5
20260508055353 75 328 23.5 26.1 0.00 0.00 0.00 52 1011.3
20260508054849 76 343 25.2 30.4 0.00 0.00 0.00 52 1011.2
20260508054347 76 344 25.2 29.5 0.00 0.00 0.00 50 1011.5
20260508053843 76 349 21.7 23.5 0.00 0.00 0.00 50 1011.2
20260508053341 75 327 24.3 28.7 0.00 0.00 0.00 50 1010.9
20260508052838 75 334 26.1 31.3 0.00 0.00 0.00 51 1011.0
20260508052336 74 346 25.2 30.4 0.00 0.00 0.00 54 1011.1
20260508051832 75 337 26.1 30.4 0.00 0.00 0.00 53 1010.9
20260508051327 75 344 26.1 29.5 0.00 0.00 0.00 52 1010.8
20260508050824 74 342 20.9 26.1 0.00 0.00 0.00 53 1011.0
20260508050321 74 350 26.1 29.5 0.00 0.00 0.00 52 1011.1
20260508045816 73 351 30.4 34.8 0.00 0.00 0.00 52 1010.3
20260508045315 73 334 26.9 30.4 0.00 0.00 0.00 54 1010.8
20260508044812 73 342 26.9 33.0 0.00 0.00 0.00 55 1010.8
20260508044308 73 344 20.9 26.9 0.00 0.00 0.00 55 1010.8
20260508043804 73 348 24.3 29.5 0.00 0.00 0.00 55 1010.8
20260508043302 73 342 27.8 33.0 0.00 0.00 0.00 54 1010.9
20260508042758 73 339 26.1 28.7 0.00 0.00 0.00 56 1010.9
20260508042256 72 350 25.2 29.5 0.00 0.00 0.00 56 1011.0
20260508041753 72 354 29.5 33.9 0.00 0.00 0.00 56 1010.9
20260508041249 72 351 27.8 29.5 0.00 0.00 0.00 56 1010.7
20260508040745 72 327 27.8 30.4 0.00 0.00 0.00 58 1011.0
20260508040243 72 324 20.0 22.6 0.00 0.00 0.00 57 1010.9
20260508035740 72 338 25.2 28.7 0.00 0.00 0.00 59 1010.8
20260508035238 71 325 24.3 31.3 0.00 0.00 0.00 58 1010.7
20260508034734 71 351 21.7 26.1 0.00 0.00 0.00 56 1010.7
20260508034231 71 343 31.3 33.9 0.00 0.00 0.00 56 1010.7
20260508033728 71 333 26.1 31.3 0.00 0.00 0.00 57 1010.6
20260508033227 71 334 26.9 29.5 0.00 0.00 0.00 57 1010.5
20260508032724 71 341 26.1 31.3 0.00 0.00 0.00 58 1010.4
20260508032221 71 341 29.5 31.3 0.00 0.00 0.00 57 1010.2
20260508031718 71 346 25.2 28.7 0.00 0.00 0.00 57 1010.8
20260508031214 71 347 26.1 30.4 0.00 0.00 0.00 55 1010.3
20260508030710 71 346 21.7 28.7 0.00 0.00 0.00 58 1010.6
20260508030208 71 359 25.2 34.8 0.00 0.00 0.00 57 1010.2
20260508025704 71 349 26.1 28.7 0.00 0.00 0.00 56 1010.2
20260508025202 71 342 21.7 26.1 0.00 0.00 0.00 57 1010.5
20260508024657 71 350 26.1 28.7 0.00 0.00 0.00 57 1010.3
20260508024155 71 338 26.1 28.7 0.00 0.00 0.00 56 1010.0
20260508023650 71 338 26.1 29.5 0.00 0.00 0.00 56 1010.3
20260508023149 71 346 26.1 28.7 0.00 0.00 0.00 56 1010.1
20260508022644 71 346 26.1 28.7 0.00 0.00 0.00 56 1010.0
20260508022141 72 350 32.2 35.6 0.00 0.00 0.00 55 1010.1
20260508021637 72 350 32.2 35.6 0.00 0.00 0.00 55 1009.9
20260508021133 72 340 29.5 36.5 0.00 0.00 0.00 56 1010.0
20260508020631 72 349 34.8 40.8 0.00 0.00 0.00 56 1009.9
20260508020128 72 339 27.8 39.1 0.00 0.00 0.00 57 1009.9
20260508015626 72 351 34.8 37.4 0.00 0.00 0.00 56 1010.0
20260508015122 72 345 28.7 33.0 0.00 0.00 0.00 56 1009.7
20260508014619 72 338 27.8 31.3 0.00 0.00 0.00 54 1010.0
20260508014115 72 312 31.3 40.8 0.00 0.00 0.00 55 1010.0
20260508013611 72 336 34.8 37.4 0.00 0.00 0.00 56 1009.9
20260508013108 72 351 27.8 35.6 0.00 0.00 0.00 56 1009.6
20260508012606 72 337 29.5 34.8 0.00 0.00 0.00 57 1009.8
20260508012103 72 342 32.2 35.6 0.00 0.00 0.00 57 1009.7
20260508011601 72 337 29.5 37.4 0.00 0.00 0.00 58 1010.0
20260508011058 72 339 33.0 35.6 0.00 0.00 0.00 59 1010.0
20260508010555 72 7 34.8 39.1 0.00 0.00 0.00 59 1009.7
20260508010053 73 326 28.7 36.5 0.00 0.00 0.00 57 1009.7
20260508005549 73 345 39.1 43.4 0.00 0.00 0.00 55 1009.8
20260508005046 73 342 32.2 36.5 0.00 0.00 0.00 54 1009.5
20260508004541 73 338 30.4 35.6 0.00 0.00 0.00 55 1009.8
20260508004038 73 325 31.3 37.4 0.00 0.00 0.00 55 1009.7
20260508003535 73 342 31.3 37.4 0.00 0.00 0.00 53 1009.7
20260508003033 73 339 33.0 35.6 0.00 0.00 0.00 54 1009.7
20260508002529 73 340 29.5 34.8 0.00 0.00 0.00 53 1010.1
20260508002026 73 340 34.8 36.5 0.00 0.00 0.00 54 1009.9
20260508001522 74 16 28.7 39.1 0.00 0.00 0.00 54 1010.0
20260508001018 74 20 29.5 33.0 0.00 0.00 0.00 53 1010.1
20260508000514 74 344 27.8 29.5 0.00 0.00 0.00 53 1010.1
20260508000012 74 347 26.1 33.9 0.00 0.00 0.00 52 1009.9
20260507235508 74 334 31.3 35.6 0.00 0.00 0.00 51 1010.0
20260507235006 74 345 26.1 29.5 0.00 0.00 0.00 52 1010.2
20260507234502 74 349 26.1 33.0 0.00 0.00 0.00 52 1010.2
20260507233958 74 344 31.3 37.4 0.00 0.00 0.00 51 1010.1
20260507233455 74 328 24.3 26.9 0.00 0.00 0.00 52 1010.0
20260507232954 75 321 28.7 34.8 0.00 0.00 0.00 51 1009.8
20260507232450 74 346 29.5 33.0 0.00 0.00 0.00 51 1009.9
20260507231947 75 335 25.2 27.8 0.00 0.00 0.00 51 1009.7
20260507231443 75 345 23.5 30.4 0.00 0.00 0.00 51 1009.8
20260507230940 75 336 26.9 28.7 0.00 0.00 0.00 50 1009.9
20260507230432 75 334 26.1 33.9 0.00 0.00 0.00 51 1009.8
20260507225932 75 342 26.1 33.0 0.00 0.00 0.00 50 1009.7
20260507225428 75 347 21.7 28.7 0.00 0.00 0.00 50 1009.8
20260507224925 75 346 26.1 29.5 0.00 0.00 0.00 49 1009.7
20260507224420 75 342 23.5 31.3 0.00 0.00 0.00 49 1009.8
20260507223917 75 346 26.1 29.5 0.00 0.00 0.00 49 1009.7
20260507223413 75 355 23.5 28.7 0.00 0.00 0.00 49 1009.9
20260507222910 75 341 24.3 26.1 0.00 0.00 0.00 49 1009.8
20260507222408 75 329 23.5 30.4 0.00 0.00 0.00 49 1009.9
20260507221904 75 346 27.8 30.4 0.00 0.00 0.00 49 1010.1
20260507221400 75 340 29.5 31.3 0.00 0.00 0.00 49 1010.1
20260507220856 76 347 24.3 29.5 0.00 0.00 0.00 48 1010.2
20260507220355 76 345 20.0 30.4 0.00 0.00 0.00 48 1010.2
20260507215852 76 349 27.8 33.0 0.00 0.00 0.00 48 1009.9
20260507215348 76 342 25.2 34.8 0.00 0.00 0.00 46 1010.3
20260507214845 76 342 25.2 30.4 0.00 0.00 0.00 47 1010.0
20260507214343 76 344 27.8 30.4 0.00 0.00 0.00 46 1009.8
20260507213843 77 338 26.9 31.3 0.00 0.00 0.00 47 1010.0
20260507213341 77 330 25.2 31.3 0.00 0.00 0.00 46 1010.3
20260507212838 76 338 24.3 28.7 0.00 0.00 0.00 47 1010.2
20260507212334 77 344 23.5 26.1 0.00 0.00 0.00 47 1010.4
20260507211830 77 333 21.7 27.8 0.00 0.00 0.00 47 1010.1
20260507211327 77 347 25.2 29.5 0.00 0.00 0.00 46 1010.3
20260507210824 77 343 27.8 29.5 0.00 0.00 0.00 47 1010.2
20260507210321 77 348 23.5 26.9 0.00 0.00 0.00 47 1009.9
20260507205818 77 344 21.7 23.5 0.00 0.00 0.00 47 1010.1
20260507205315 77 340 29.5 33.9 0.00 0.00 0.00 47 1010.1
20260507204810 77 352 22.6 26.1 0.00 0.00 0.00 47 1010.1
20260507204308 77 346 25.2 30.4 0.00 0.00 0.00 48 1010.3
20260507203806 78 350 23.5 26.1 0.00 0.00 0.00 48 1010.1
20260507203303 78 354 21.7 30.4 0.00 0.00 0.00 47 1010.1
20260507202759 78 338 23.5 27.8 0.00 0.00 0.00 47 1010.1
20260507202255 78 358 22.6 27.8 0.00 0.00 0.00 48 1010.3
20260507201750 78 346 22.6 26.9 0.00 0.00 0.00 46 1010.2
20260507201247 79 319 21.7 28.7 0.00 0.00 0.00 45 1010.3
20260507200743 79 334 20.9 26.1 0.00 0.00 0.00 43 1010.4
20260507200239 79 343 20.9 26.9 0.00 0.00 0.00 42 1010.4
20260507195735 79 338 24.3 26.1 0.00 0.00 0.00 41 1010.0
20260507195233 80 335 24.3 31.3 0.00 0.00 0.00 41 1010.4
20260507194730 80 346 21.7 26.9 0.00 0.00 0.00 41 1010.3
20260507194226 80 345 24.3 29.5 0.00 0.00 0.00 41 1010.2
20260507193723 80 348 26.1 30.4 0.00 0.00 0.00 42 1010.1
20260507193219 79 347 26.1 30.4 0.00 0.00 0.00 43 1010.2
20260507192716 79 329 22.6 31.3 0.00 0.00 0.00 44 1010.1
20260507192213 80 345 26.9 31.3 0.00 0.00 0.00 43 1010.1
20260507191708 80 343 26.9 30.4 0.00 0.00 0.00 43 1010.1
20260507191206 80 349 25.2 30.4 0.00 0.00 0.00 43 1009.7
20260507190702 80 327 25.2 30.4 0.00 0.00 0.00 44 1009.9
20260507190201 80 343 23.5 30.4 0.00 0.00 0.00 44 1010.0
20260507185659 80 346 25.2 28.7 0.00 0.00 0.00 43 1009.7
20260507185156 80 347 22.6 27.8 0.00 0.00 0.00 42 1009.8
20260507184653 80 334 23.5 28.7 0.00 0.00 0.00 41 1009.5
20260507184151 80 349 26.1 28.7 0.00 0.00 0.00 41 1009.4
20260507183647 80 334 25.2 29.5 0.00 0.00 0.00 41 1009.8
20260507183144 80 2 26.1 28.7 0.00 0.00 0.00 40 1009.5
20260507182641 81 347 21.7 28.7 0.00 0.00 0.00 39 1009.5
20260507182137 80 3 25.2 27.8 0.00 0.00 0.00 39 1009.4
20260507181633 80 342 20.0 26.1 0.00 0.00 0.00 41 1009.3
20260507181130 80 345 19.1 26.1 0.00 0.00 0.00 43 1009.3
20260507180626 80 4 20.0 26.9 0.00 0.00 0.00 44 1009.1
20260507180124 80 334 23.5 26.9 0.00 0.00 0.00 46 1009.2
20260507175619 80 342 20.0 22.6 0.00 0.00 0.00 44 1008.9
20260507175117 80 339 23.5 26.9 0.00 0.00 0.00 41 1009.1
20260507174614 81 340 21.7 27.8 0.00 0.00 0.00 41 1008.9
20260507174112 81 347 21.7 23.5 0.00 0.00 0.00 38 1009.1
20260507173609 81 355 19.1 22.6 0.00 0.00 0.00 37 1008.9
20260507173106 81 342 23.5 26.9 0.00 0.00 0.00 37 1008.8
20260507172601 81 351 20.0 22.6 0.00 0.00 0.00 39 1009.1
20260507172059 81 344 21.7 25.2 0.00 0.00 0.00 39 1008.8
20260507171554 80 352 18.2 20.0 0.00 0.00 0.00 40 1008.7
20260507171051 80 355 18.2 21.7 0.00 0.00 0.00 42 1008.9
20260507170548 78 329 9.6 13.9 0.00 0.00 0.00 46 1009.1
20260507170045 78 296 4.3 6.1 0.00 0.00 0.00 55 1009.6
20260507165541 79 278 5.2 8.7 0.00 0.00 0.00 51 1009.2
20260507165037 79 255 6.1 7.0 0.00 0.00 0.00 50 1009.3
20260507164534 79 277 3.5 5.2 0.00 0.00 0.00 52 1009.5
20260507164031 79 300 3.5 5.2 0.00 0.00 0.00 50 1009.5
20260507163528 79 301 5.2 6.1 0.00 0.00 0.00 49 1009.3